TimeEDT,TemperatureF,Dew PointF,Humidity,Sea Level PressureIn,VisibilityMPH,Wind Direction,Wind SpeedMPH,Gust SpeedMPH,PrecipitationIn,Events,Conditions,WindDirDegrees,DateUTC
12:53 AM,33.1,15.1,48,29.72,10.0,Variable,4.6,-,N/A,,Mostly Cloudy,0,2013-04-02 04:53:00
1:53 AM,32.0,12.0,44,29.73,10.0,Variable,5.8,-,N/A,,Clear,0,2013-04-02 05:53:00
3:53 AM,27.0,18.0,69,29.74,10.0,Calm,Calm,-,N/A,,Clear,0,2013-04-02 07:53:00
4:53 AM,28.0,17.1,63,29.75,10.0,Calm,Calm,-,N/A,,Scattered Clouds,0,2013-04-02 08:53:00
5:53 AM,28.0,14.0,56,29.77,10.0,Variable,3.5,-,N/A,,Partly Cloudy,0,2013-04-02 09:53:00
6:53 AM,27.0,12.0,53,29.78,10.0,Calm,Calm,-,N/A,,Clear,0,2013-04-02 10:53:00
7:53 AM,30.0,10.0,43,29.79,10.0,Variable,6.9,-,N/A,,Clear,0,2013-04-02 11:53:00
8:53 AM,32.0,12.0,44,29.80,10.0,Variable,5.8,-,N/A,,Partly Cloudy,0,2013-04-02 12:53:00
9:53 AM,32.0,12.9,45,29.79,10.0,Calm,Calm,-,N/A,,Overcast,0,2013-04-02 13:53:00
10:53 AM,32.0,10.9,42,29.79,10.0,Variable,4.6,-,N/A,,Overcast,0,2013-04-02 14:53:00
11:53 AM,35.1,10.9,37,29.78,10.0,Variable,6.9,17.3,N/A,,Mostly Cloudy,0,2013-04-02 15:53:00
12:53 PM,36.0,8.1,31,29.76,10.0,West,8.1,-,N/A,,Overcast,260,2013-04-02 16:53:00
1:53 PM,36.0,7.0,30,29.75,10.0,WSW,9.2,18.4,N/A,,Overcast,240,2013-04-02 17:53:00
2:53 PM,37.0,6.1,28,29.74,10.0,West,11.5,20.7,N/A,,Overcast,280,2013-04-02 18:53:00
3:53 PM,37.0,5.0,26,29.73,10.0,WSW,9.2,16.1,N/A,,Overcast,250,2013-04-02 19:53:00
4:53 PM,37.9,7.0,28,29.73,10.0,West,9.2,16.1,N/A,,Mostly Cloudy,260,2013-04-02 20:53:00
5:53 PM,37.0,7.0,29,29.74,10.0,West,8.1,18.4,N/A,,Mostly Cloudy,260,2013-04-02 21:53:00
6:53 PM,34.0,10.9,38,29.78,10.0,WNW,9.2,20.7,N/A,,Overcast,290,2013-04-02 22:53:00
7:53 PM,33.1,10.9,40,29.80,10.0,Variable,5.8,-,N/A,,Scattered Clouds,0,2013-04-02 23:53:00
8:53 PM,30.9,10.9,43,29.83,10.0,Calm,Calm,-,N/A,,Partly Cloudy,0,2013-04-03 00:53:00
9:53 PM,30.0,12.0,47,29.83,10.0,Calm,Calm,-,N/A,,Clear,0,2013-04-03 01:53:00
10:53 PM,30.0,10.0,43,29.83,10.0,WSW,3.5,-,N/A,,Overcast,240,2013-04-03 02:53:00
11:53 PM,30.9,10.0,42,29.81,10.0,WSW,5.8,-,N/A,,Overcast,240,2013-04-03 03:53:00